ISS - Orbit

View from above orbital plane
View from above orbital plane
View from above satellite
View from above satellite

Ground track
Ground track

The orbit data is extracted from the following two-line orbital elements,

1 25544U 98067A   13144.21626477  .00013875  00000-0  24625-3 0  8689
2 25544 051.6494 227.1952 0009573 351.2297 102.1116 15.50470296830981
Epoch (UTC): 24 May 2013 05:11:25
Eccentricity: 0.0009573
inclination: 51.6494°
perigee height: 409 km
apogee height: 422 km
right ascension of ascending node: 227.1952°
argument of perigee: 351.2297°
revolutions per day: 15.50470296
mean anomaly at epoch: 102.1116°
orbit number at epoch: 83098

The dashed part of the orbit path shows where the satellite is in the earth's shadow,  

Developed and maintained by Chris Peat, Heavens-Above GmbH. Please read the updated FAQ before sending e-mail. Imprint. DLR